Regional Weather Roundup
Issued by NWS Charleston, SC

Current Version | Previous Version | Graphics & Text | Print | Product List | Glossary On
Versions: 1 2 3 4 5 6 7 8 9 10 11 12 13 14 15 16 17 18 19 20 21 22 23 24 25 26 27 28 29 30 31 32 33 34 35 36 37 38 39 40 41 42 43 44 45 46 47 48 49 50
000 ASUS42 KCHS 201610 RWRCHS REGIONAL WEATHER ROUNDUP NATIONAL WEATHER SERVICE CHARLESTON SC 1100 AM EST SAT DEC 20 2014 NOTE: "FAIR" INDICATES FEW OR NO CLOUDS BELOW 12,000 FEET WITH NO SIGNIFICANT WEATHER AND/OR OBSTRUCTIONS TO VISIBILITY. NOT ALL STATIONS ARE QUALITY CONTROLLED BY THE NATIONAL WEATHER SERVICE. USE DATA WITH CAUTION...ESPECIALLY DEWPOINT OBSERVATIONS. SCZ027-030-031-034>040-042>050-201700- ...SOUTHEAST SOUTH CAROLINA... CITY SKY/WX TMP DP RH WIND PRES REMARKS N CHARLESTON LGT RAIN 52 50 93 NE7 30.22S FOG WATERFRONT PRK N/A 54 N/A N/A NE9 N/A MOUNT PLEASANT DRIZZLE 54 54 100 N3 30.21S PINOPOLIS N/A 52 48 87 E7 30.15 MONCKS CORNER DRIZZLE 52 48 87 CALM 30.22S SUMMERVILLE DRIZZLE 50 50 100 NE6 30.23S BEAUFORT MCAS CLOUDY 52 50 93 N6 30.21R BEAUFORT ARPT CLOUDY 52 52 100 N7 30.20R HILTON HEAD IS CLOUDY 54 52 94 N8 30.21S WALTERBORO RAIN 52 N/A N/A NE5 30.23R ALLENDALE LGT RAIN 50 50 100 SE6 30.21F ...SOUTHERN MIDLANDS AND PEE DEE... CITY SKY/WX TMP DP RH WIND PRES REMARKS GEORGETOWN NOT AVBL KINGSTREE NOT AVBL ORANGEBURG LGT RAIN 49 46 90 E3 30.23S FOG BARNWELL DRIZZLE 50 50 100 E5 30.22F AIKEN LGT RAIN 46 46 100 N3 30.26R MANNING NOT AVBL COLUMBIA LGT RAIN 48 43 82 N3 30.24S SUMTER LGT RAIN 46 44 92 E7 30.22F FLORENCE CLOUDY 45 40 82 NE7 30.26R MYRTLE BEACH LGT RAIN 48 45 87 NE10 30.24F N MYRTLE BEACH LGT RAIN 47 44 90 NE9 30.24S FOG $$ GAZ063-065-086>088-099>101-113>116-118-119-134>141-150-201700- ...SOUTHEAST GEORGIA... CITY SKY/WX TMP DP RH WIND PRES REMARKS SAVANNAH ARPT CLOUDY 52 49 89 N6 30.21R HUNTER AAF CLOUDY 53 52 96 N8 30.18F FORT STEWART CLOUDY 54 52 94 N6 30.19S STATESBORO DRIZZLE 49 49 100 CALM 30.22R SYLVANIA DRIZZLE 49 49 100 CALM 30.24R CLAXTON DRIZZLE 52 52 100 NW5 30.23R ...CSRA...CENTRAL AND FAR SOUTHEAST GEORGIA... CITY SKY/WX TMP DP RH WIND PRES REMARKS THOMSON CLOUDY 52 52 100 CALM 30.26F AUGUSTA-BUSH CLOUDY 51 49 92 CALM 30.22S FOG AUGUSTA-DANIEL LGT RAIN 51 49 92 N5 30.22R FOG SWAINSBORO DRIZZLE N/A N/A N/A SE5 30.20F VIDALIA CLOUDY 50 50 100 NE6 30.22F FOG EASTMAN CLOUDY 52 52 100 SE5 30.23R HAZLEHURST CLOUDY 52 52 100 NE3 30.20S ALMA CLOUDY 53 49 86 N5 30.19S FOG WAYCROSS CLOUDY 57 54 90 N7 30.18S JESUP CLOUDY 55 54 94 NE6 30.19S BAXLEY DRIZZLE 54 50 87 NE5 30.20S BRUNSWICK CLOUDY 59 52 77 N5 30.18S SAINT SIMONS CLOUDY 59 54 83 N9 30.17F $$ SCZ027-028-034-036>038-045-046-048>050-GAZ119-141-201700- ...LAKE AND SUPPLEMENTAL COASTAL OBSERVATIONS... STATION/POSITION TIME TEMP WIND PRES WAVE SWELL AIR SEA DIR/SP/G HT/PER HT/PER/DIR (UTC) (F) (DEG/KT/KT) (MB) (FT/S) (FT/S/D) UPR LAKE MARION NOT AVBL WINYAH BAY 1500 52 50/ 10 1023.0R LAKE MURRAY 1500 44 30/ 2/ 4 1023.4R ACE BASIN NERRS 1500 51 20/ 2 1022.0S FORT PULASKI 1600 53 56 320/ 6/ 8 1023.0R SAPELO ISLAND 1500 56 10/ 3 1022.0R $$ ANZ835-935-AMZ111-154-330-350-352-354-370-450-454-472-201700- ...C-MAN AND BUOY OBSERVATIONS... STATION/POSITION TIME TEMP WIND PRES WAVE SWELL AIR SEA DIR/SP/G HT/PER HT/PER/DIR (UTC) (F) (DEG/KT/KT) (MB) (FT/S) (FT/S/D) BUOY 41004 1600 62 68 40/ 12/ 16 1021.5R 4/ 6 3/11 BUOY 41008 1600 59 58 360/ 8/ 8 1021.7R 2/ 4 2/ 50/ 4 FOLLY BEACH CMAN 1500 53 20/ 7/ 10 1023.4R CAPERS NEARSHORE 1500 54 30/ 17/ 19 N/A FRIPP NEARSHORE NOT AVBL STATION/POSITION TIME TEMP WIND PRES WAVE SWELL AIR SEA DIR/SP/G HT/PER HT/PER/DIR (UTC) (F) (DEG/KT/KT) (MB) (FT/S) (FT/S/D) 5E ST. MARYS GA 1600 61 N/A 2/ 4 FRYING PAN BUOY 1600 56 65 50/ 14/ 17 1023.8R 3/ 4 2/150/10 BUOY 41025 1600 49 1024.7F 3/ 7 CAPE LOOKOUT NC 1500 46 30/ 12/ 14 1024.5S BUOY 41002 1453 66 72 90/ 10/ 14 1022.5F 2/10 2/ 80/10 BUOY 41010 1600 73 77 180/ 8/ 10 1020.6F 3/11 3/ 90/11 ST AUGUSTINE FL 1600 63 360/ 11/ 11 1021.2F $$

USA.gov is the U.S. government's official web portal to all federal, state and local government web resources and services.